カタログに戻る

KUIPER-00132

運用中通信VLEO
NORAD 65763·PAYLOAD·🇺🇸 United States

打ち上げ Sep 25, 2025 から Cape Canaveral Space Force Station

Loading…

次のパス (今後24時間)

TLE

最新Source: CelesTrak SupGP

元期: Sep 14, 2026, 23:41 UTC

1 65763C 25217B   26257.98724537  .00005747  00000+0  14443-3 0  2579
2 65763  51.8520 162.1947 0004795 281.3622   9.4637 15.39347166    14

AllMySatでKUIPER-00132をリアルタイム追跡

Download on the App Store